Tracking 28348 objects as of 8-Dec-2023
HD Live streaming from Space Station
objects crossing your sky now

STARLINK-30279

Track STARLINK-30279 now!
10-day predictions
STARLINK-30279 is classified as:


NORAD ID: 57885
Int'l Code: 2023-144X
Perigee: 565.3 km
Apogee: 567.1 km
Inclination: 43.0 °
Period: 95.8 minutes
Semi major axis: 6937 km
RCS: Unknown
Launch date: September 16, 2023
Source: United States (US)
Launch site: AIR FORCE EASTERN TEST RANGE (AFETR)
Your satellite tracking list
Your tracking list is empty




NASA's NSSDC Master Catalog

Two Line Element Set (TLE):
1 57885U 23144X   23341.76021175 -.00001115  00000-0 -67438-4 0  9991
2 57885  43.0025  78.7860 0001251 270.5171  89.5528 15.02545248 13767
Source of the keplerian elements: AFSPC